{"data":{"norad_id":66243,"intl_designator":"2025-245K","name":"STARLINK-35495","alt_names":[],"object_type":"PAYLOAD","status":"ACTIVE","operator":null,"country":"US","launch_date":"2025-10-29","launch_site_code":"AFETR","launch_vehicle":null,"mission":null,"orbit_class":"UNKNOWN","rcs_meters":null,"size_class":null,"mass_kg":null,"dimensions":null,"purposes":["comms"],"wikipedia_slug":null,"has_3d_model":false,"image_url":null,"decayed_at":null,"tle_current":{"epoch":"2026-09-20T22:02:55.324032Z","epoch_age_seconds":60490,"freshness":"FRESH","line1":"1 66243U 25245K   26263.91869588  .00024628  00000+0  73751-3 0  9999","line2":"2 66243  53.1582  95.8960 0001836  88.2981 271.8232 15.34405130 51151","mean_motion":15.3440513,"eccentricity":0.0001836,"inclination_deg":53.1582,"raan_deg":95.896,"arg_perigee_deg":88.2981,"mean_anomaly_deg":271.8232,"bstar":0.00073751,"rev_number":5115,"period_min":93.847444318698,"perigee_km":461.43201733981,"apogee_km":463.94396827717,"semimajor_km":6840.8249928085,"source":"CELESTRAK","updated_at":"2026-09-21T09:00:35.847511Z"}}}